Weather History for KVTI - January, 2013

Change the Weather History Date:

Friday, January 11, 2013

  Actual Average Record
Temperature  
Mean Temperature 40 °F -  
Max Temperature 47 °F 24 °F 50 °F (1992)
Min Temperature 32 °F 6 °F -22 °F (1977)
Degree Days  
Heating Degree Days 26    
Moisture  
Dew Point 38 °F    
Average Humidity 92    
Maximum Humidity 96    
Minimum Humidity 76    
Precipitation  
Precipitation 0.00 in - - ()
Sea Level Pressure  
Sea Level Pressure 29.62 in    
Wind  
Wind Speed 8 mph (South)    
Max Wind Speed 16 mph    
Max Gust Speed 23 mph    
Visibility 4 miles    
Events Fog , Rain , Snow    
Averages and records for this station are not official NWS values.
T = Trace of Precipitation, MM = Missing Value Source: NWS Daily Summary

Daily Weather History Graph

Daily Weather History Graph

Search for Another Location

Airport or City:

Trip Planner

Search our weather history database for the weather conditions in past years. The results will help you decide how hot, cold, wet, or windy it might be!

Date:

Astronomy

Jan. 11, 2013 Rise Set
Actual Time 7:35 AM CST 4:56 PM CST
Civil Twilight 7:04 AM CST 5:28 PM CST
Nautical Twilight 6:29 AM CST 6:02 PM CST
Astronomical Twilight 5:56 AM CST 6:36 PM CST
Moon 7:08 AM CST (1/11) 5:16 PM CST (1/11)
Length of Visible Light 10h 23m
Length of Day
9h 21m
Waning Crescent, 0% of the Moon is Illuminated
Jan 11
Waning Crescent
Jan 11
New
Jan 18
First Quarter
Jan 26
Full
Feb 3
Last Quarter

Hourly Weather History & Observations

Time (CST) Temp. Windchill Dew Point Humidity Pressure Visibility Wind Dir Wind Speed Gust Speed Precip Events Conditions
12:15 AM 34.9 °F 32.0 °F 33.1 °F 93% 29.75 in 1.8 mi SE 3.5 mph - N/A   Overcast
12:35 AM 34.9 °F 29.9 °F 33.1 °F 93% 29.74 in 1.2 mi SE 5.8 mph - N/A   Overcast
12:55 AM 34.9 °F 28.3 °F 33.1 °F 93% 29.73 in 0.8 mi SE 8.1 mph - N/A   Overcast
1:15 AM 34.9 °F 28.3 °F 33.3 °F 94% 29.74 in 0.5 mi SSE 8.1 mph - N/A Fog Fog
1:35 AM 34.9 °F 29.9 °F 33.3 °F 94% 29.74 in 0.5 mi SE 5.8 mph - N/A Fog Fog
1:55 AM 34.9 °F - 33.3 °F 94% 29.75 in 0.2 mi Calm Calm - N/A Fog Fog
2:15 AM 34.9 °F 32.0 °F 33.3 °F 94% 29.74 in 0.2 mi SSW 3.5 mph - N/A Fog Fog
2:35 AM 34.9 °F 30.8 °F 33.4 °F 94% 29.74 in 0.5 mi South 4.6 mph - N/A Fog Fog
2:55 AM 34.9 °F - 33.4 °F 94% 29.72 in 0.8 mi Calm Calm - N/A   Light Drizzle
3:15 AM 34.7 °F - 33.3 °F 94% 29.71 in 0.5 mi Calm Calm - N/A Rain Rain
3:35 AM 32.4 °F - 31.1 °F 95% 29.71 in 0.5 mi Calm Calm - N/A Fog Fog
3:55 AM 33.6 °F - 32.2 °F 94% 29.70 in 0.5 mi Calm Calm - N/A Fog Fog
4:15 AM 32.4 °F 29.1 °F 31.1 °F 95% 29.71 in 0.5 mi SW 3.5 mph - N/A   Drizzle
4:35 AM 32.4 °F 26.0 °F 31.3 °F 96% 29.70 in 0.5 mi SSW 6.9 mph - N/A   Light Drizzle
4:55 AM 32.7 °F 27.3 °F 31.8 °F 96% 29.70 in 0.8 mi SSW 5.8 mph - N/A   Overcast
5:15 AM 33.8 °F 27.0 °F 32.2 °F 94% 29.70 in 0.5 mi SSW 8.1 mph - N/A Fog Fog
5:35 AM 34.9 °F 29.9 °F 33.4 °F 94% 29.68 in 0.5 mi South 5.8 mph - N/A Fog Fog
5:55 AM 34.9 °F 32.0 °F 33.4 °F 94% 29.66 in 0.5 mi South 3.5 mph - N/A Fog Fog
6:15 AM 34.9 °F 29.9 °F 33.4 °F 94% 29.67 in 0.5 mi SW 5.8 mph - N/A Fog Fog
7:15 AM 34.9 °F 27.7 °F 33.4 °F 94% 29.67 in 0.2 mi SSW 9.2 mph - N/A Snow Light Snow
7:35 AM 34.9 °F 29.9 °F 33.4 °F 94% 29.68 in 0.2 mi SSW 5.8 mph - N/A Snow Light Snow
7:55 AM 34.9 °F 28.3 °F 33.4 °F 94% 29.68 in 0.2 mi South 8.1 mph - N/A Snow Light Snow
8:15 AM 34.9 °F 26.2 °F 33.4 °F 94% 29.68 in 0.2 mi SSW 12.7 mph - N/A Snow Light Snow
8:35 AM 36.7 °F 28.4 °F 35.2 °F 95% 29.68 in 0.2 mi South 12.7 mph 18.4 mph N/A Rain Light Rain
8:55 AM 37.4 °F 29.8 °F 36.0 °F 95% 29.68 in 0.2 mi South 11.5 mph - N/A Fog Fog
9:15 AM 37.4 °F 31.4 °F 36.1 °F 95% 29.68 in 0.2 mi South 8.1 mph - N/A Fog Fog
9:35 AM 37.4 °F 30.8 °F 36.1 °F 95% 29.68 in 0.2 mi South 9.2 mph - N/A Fog Fog
9:55 AM 37.4 °F 30.8 °F 36.1 °F 95% 29.67 in 0.2 mi South 9.2 mph - N/A Fog Fog
10:15 AM 38.7 °F 31.8 °F 37.4 °F 95% 29.66 in 0.2 mi South 10.4 mph - N/A Rain Light Rain
10:35 AM 38.7 °F 31.8 °F 37.4 °F 95% 29.65 in 0.2 mi South 10.4 mph - N/A   Overcast
10:55 AM 39.0 °F 31.4 °F 37.8 °F 95% 29.64 in 0.2 mi SSE 12.7 mph - N/A Fog Fog
11:15 AM 40.1 °F 34.7 °F 38.5 °F 94% 29.65 in 0.2 mi South 8.1 mph - N/A Fog Fog
11:35 AM 40.1 °F 34.1 °F 38.8 °F 95% 29.63 in 0.2 mi South 9.2 mph - N/A Fog Fog
11:55 AM 40.8 °F 34.1 °F 39.4 °F 95% 29.62 in 0.2 mi South 11.5 mph - N/A Fog Fog
12:15 PM 41.4 °F 35.7 °F 40.3 °F 96% 29.61 in 0.2 mi South 9.2 mph - N/A Fog Fog
12:35 PM 42.4 °F 36.5 °F 41.0 °F 95% 29.59 in 0.5 mi South 10.4 mph - N/A Fog Fog
12:55 PM 42.4 °F 35.7 °F 41.0 °F 95% 29.58 in 2.0 mi South 12.7 mph - N/A   Overcast
1:15 PM 43.7 °F 36.9 °F 42.4 °F 95% 29.57 in 3.0 mi South 13.8 mph - N/A   Overcast
1:35 PM 43.0 °F 36.8 °F 41.5 °F 95% 29.56 in 3.0 mi South 11.5 mph - N/A   Overcast
1:55 PM 43.5 °F 36.7 °F 42.1 °F 95% 29.56 in 3.0 mi SSE 13.8 mph - N/A   Overcast
2:15 PM 44.6 °F 37.8 °F 43.5 °F 96% 29.55 in 4.0 mi South 15.0 mph - N/A   Overcast
2:35 PM 43.9 °F 36.8 °F 42.6 °F 95% 29.54 in 4.0 mi SSE 15.0 mph - N/A   Overcast
2:55 PM 44.2 °F 38.4 °F 43.0 °F 95% 29.55 in 4.0 mi South 11.5 mph - N/A   Overcast
3:15 PM 43.7 °F 36.9 °F 42.3 °F 95% 29.54 in 4.0 mi SSE 13.8 mph 18.4 mph N/A   Overcast
3:35 PM 43.7 °F 37.3 °F 42.4 °F 95% 29.55 in 5.0 mi SSE 12.7 mph - N/A   Scattered Clouds
3:55 PM 42.8 °F 37.5 °F 41.4 °F 95% 29.56 in 5.0 mi SSE 9.2 mph - N/A   Scattered Clouds
4:15 PM 42.4 °F 36.1 °F 41.0 °F 95% 29.56 in 5.0 mi SSE 11.5 mph - N/A   Clear
4:35 PM 42.4 °F 35.3 °F 41.0 °F 95% 29.55 in 5.0 mi SSE 13.8 mph - N/A   Clear
4:55 PM 42.4 °F 34.7 °F 41.0 °F 95% 29.53 in 7.0 mi SSE 16.1 mph 19.6 mph N/A   Clear
5:15 PM 43.7 °F 36.6 °F 42.3 °F 95% 29.54 in 10.0 mi South 15.0 mph - N/A   Clear
5:35 PM 42.4 °F 35.3 °F 41.0 °F 95% 29.52 in 10.0 mi SSE 13.8 mph 17.3 mph N/A   Clear
5:55 PM 43.7 °F 37.7 °F 41.9 °F 93% 29.54 in 10.0 mi South 11.5 mph 19.6 mph N/A   Clear
6:15 PM 42.4 °F 35.3 °F 40.3 °F 92% 29.54 in 10.0 mi South 13.8 mph 18.4 mph N/A   Clear
6:35 PM 42.1 °F 34.9 °F 39.6 °F 91% 29.54 in 10.0 mi South 13.8 mph - N/A   Clear
6:55 PM 42.3 °F 35.1 °F 39.6 °F 90% 29.54 in 10.0 mi South 13.8 mph - N/A   Clear
7:15 PM 43.3 °F 36.1 °F 40.5 °F 90% 29.53 in 10.0 mi South 15.0 mph - N/A   Clear
7:35 PM 43.9 °F 36.8 °F 40.5 °F 88% 29.54 in 10.0 mi SSE 15.0 mph 19.6 mph N/A   Clear
7:55 PM 42.4 °F 35.3 °F 39.2 °F 88% 29.52 in 10.0 mi South 13.8 mph - N/A   Clear
8:15 PM 42.4 °F 35.3 °F 38.8 °F 87% 29.53 in 10.0 mi South 13.8 mph 18.4 mph N/A   Clear
8:35 PM 42.4 °F 35.7 °F 39.0 °F 88% 29.54 in 10.0 mi South 12.7 mph 17.3 mph N/A   Clear
8:55 PM 45.0 °F 38.9 °F 40.5 °F 84% 29.53 in 10.0 mi South 12.7 mph - N/A   Clear
9:15 PM 45.0 °F 38.2 °F 40.3 °F 84% 29.54 in 10.0 mi South 15.0 mph 23.0 mph N/A   Clear
9:35 PM 47.5 °F - 41.9 °F 81% 29.54 in 10.0 mi South 15.0 mph 21.9 mph N/A   Clear
9:55 PM 47.5 °F - 41.9 °F 81% 29.53 in 10.0 mi South 13.8 mph - N/A   Clear
10:15 PM 47.5 °F - 41.7 °F 80% 29.53 in 10.0 mi South 15.0 mph 20.7 mph N/A   Clear
10:35 PM 47.5 °F - 41.4 °F 79% 29.54 in 10.0 mi South 15.0 mph 18.4 mph N/A   Clear
10:55 PM 47.5 °F - 41.4 °F 79% 29.54 in 10.0 mi South 16.1 mph 19.6 mph N/A   Clear
11:15 PM 47.5 °F - 40.5 °F 77% 29.54 in 10.0 mi South 13.8 mph 23.0 mph N/A   Clear
11:35 PM 47.5 °F - 40.3 °F 76% 29.54 in 10.0 mi South 16.1 mph 20.7 mph N/A   Clear
11:55 PM 47.5 °F - 40.6 °F 77% 29.55 in 10.0 mi South 15.0 mph 20.7 mph N/A   Clear